Wetbulb
61.26 61.09 60.95 60.81 60.54 60.26 60.10 60.04 60.08 60.01 59.98 59.54 59.28 59.20 59.09 58.97 58.94 58.98 58.98 58.86 58.89 58.83 58.93 59.17 59.36 59.35 59.26 58.89 59.20 59.27 59.21 58.86 59.06 59.09 59.01 58.64 58.39 58.19 58.25 58.45 58.39 57.80 56.92 55.89 55.12 54.54 54.29 54.13 53.84 53.72 53.94 54.40 54.37 54.45 54.63 54.86 54.62 54.23 53.92 53.70 53.39 53.11 52.89 53.06 53.02 52.84 52.43 51.85 51.13
60.87 60.88 60.88 60.86 60.61 60.36 60.09 59.95 59.92 59.92 59.82 59.54 59.46 59.24 59.07 59.16 59.09 59.08 59.00 58.90 59.12 59.32 59.40 59.49 59.54 59.33 59.20 59.05 59.24 59.25 59.09 58.68 58.78 58.89 58.91 58.84 59.07 59.20 59.29 59.11 58.42 57.67 57.03 56.18 55.39 55.14 55.19 55.03 54.84 54.72 54.77 55.03 55.23 55.38 55.54 55.70 55.56 55.16 54.65 54.29 54.16 53.98 53.80 53.34 53.17 52.57 51.94 50.85 50.00
60.84 60.93 60.88 60.73 60.49 60.19 59.98 59.65 59.57 59.37 59.10 59.00 59.32 59.32 59.20 59.15 59.32 59.21 59.12 59.10 59.27 59.37 59.47 59.57 59.65 59.36 59.03 58.97 59.17 59.10 59.01 58.72 58.63 58.66 58.92 59.19 59.78 59.84 59.58 58.86 58.14 57.81 57.46 56.80 56.30 55.99 55.81 55.57 55.44 55.35 55.32 55.38 55.57 55.66 55.73 55.73 55.56 54.99 54.38 53.84 53.52 52.80 51.98 51.49 51.04 50.45 49.99 49.54 48.91
60.74 60.65 60.53 60.36 60.00 59.87 59.69 59.68 59.39 59.19 59.17 59.35 59.03 59.12 59.26 59.30 59.37 59.32 59.11 58.93 59.10 59.20 59.32 59.35 59.65 59.50 59.24 59.11 58.80 58.70 58.65 58.66 58.72 58.78 58.99 59.32 59.49 59.36 58.94 58.10 57.84 57.60 57.39 56.86 56.36 55.98 55.57 55.10 54.94 54.91 54.96 55.35 55.48 55.10 54.34 53.34 52.84 52.39 51.98 51.71 51.44 50.40 49.27 48.64 48.00 47.51 47.32 47.64 47.73
60.52 60.53 60.49 60.33 60.04 59.90 59.85 59.47 59.28 59.26 59.30 59.42 59.44 59.33 59.21 59.19 59.21 59.12 58.97 59.07 59.18 59.22 59.22 59.11 59.54 59.53 59.31 58.87 58.56 58.44 58.49 58.65 58.94 58.98 58.84 58.51 58.63 58.57 58.39 58.44 58.14 57.80 57.37 56.72 56.08 55.57 55.20 54.78 54.46 54.27 54.25 54.81 54.89 54.31 53.56 52.75 51.93 51.39 50.81 50.45 50.36 49.72 48.73 48.05 47.51 47.32 47.37 47.55 47.91
60.23 60.22 60.22 60.34 60.13 60.01 59.77 59.58 59.38 59.45 59.48 59.57 59.24 58.99 58.98 59.02 58.98 58.86 58.80 58.92 58.91 58.84 58.84 59.10 59.35 59.31 59.11 58.69 58.41 58.36 58.43 58.68 59.15 59.30 59.19 58.98 58.94 58.82 58.60 58.53 58.48 58.10 57.64 56.90 56.23 55.83 55.67 55.58 55.12 55.13 55.11 54.70 54.01 53.39 52.79 52.20 51.39 50.62 49.90 49.09 48.95 48.64 48.14 47.78 47.96 48.28 48.64 48.73 48.09
60.08 60.06 59.98 60.09 60.03 59.81 59.62 59.43 59.61 59.58 59.45 59.37 58.88 58.64 58.61 58.71 58.69 58.62 58.59 58.86 59.03 58.90 58.88 59.36 59.29 59.25 59.05 58.66 58.34 58.13 58.13 58.36 59.06 59.39 59.47 59.27 59.03 58.94 58.86 58.76 58.76 58.48 58.05 57.75 57.21 56.76 56.44 55.87 54.97 54.18 53.54 52.87 52.67 52.46 52.20 51.70 50.80 50.13 49.41 48.50 47.96 48.09 48.64 48.86 48.41 48.23 48.18 48.32 48.09
59.94 59.91 59.95 59.98 59.97 59.74 59.45 59.36 59.61 59.43 59.20 59.26 58.99 58.60 58.46 58.52 58.51 58.57 58.80 59.21 58.94 58.88 59.04 59.61 59.30 59.09 58.93 58.73 58.67 58.42 58.14 57.99 58.71 59.00 59.03 58.88 58.73 58.71 58.79 58.62 58.25 57.76 57.18 56.78 56.11 55.52 54.95 54.44 53.45 52.60 52.21 52.61 52.19 51.70 51.26 51.07 50.62 49.63 48.41 46.92 47.32 47.46 47.42 47.46 47.14 47.42 47.87 48.27 48.27
59.78 59.71 59.71 59.89 59.83 59.66 59.56 59.49 59.41 59.22 59.06 58.82 58.80 58.77 58.65 58.59 58.76 59.05 59.20 59.21 58.78 58.95 59.20 59.52 59.36 59.19 59.05 58.84 58.72 58.57 58.43 58.24 58.13 58.18 58.44 58.35 58.13 57.69 57.12 56.37 55.66 55.03 54.73 54.48 54.12 53.88 53.59 53.30 52.86 52.56 52.24 52.11 50.98 49.77 49.09 49.49 49.49 49.72 49.58 48.73 48.46 47.96 47.69 48.05 47.69 47.51 47.42 47.64 47.50
59.29 59.36 59.43 59.65 59.46 59.42 59.47 59.29 59.21 58.95 58.72 58.56 58.67 58.68 58.79 58.85 59.24 59.45 59.40 59.04 58.94 59.01 59.12 59.20 59.15 58.92 58.77 58.57 58.51 58.36 58.24 58.31 58.24 58.26 58.20 58.12 57.75 57.22 56.63 56.14 55.46 54.96 54.57 54.39 54.25 53.97 53.55 53.17 52.78 52.34 51.98 51.35 49.63 48.45 47.87 47.91 48.54 49.44 50.08 49.77 49.67 49.36 49.04 48.99 48.63 48.14 47.55 46.87 46.24
59.05 59.29 59.46 59.56 59.20 59.21 59.27 59.01 59.05 58.97 58.75 58.73 58.82 59.00 59.30 59.62 59.60 59.32 59.12 59.01 58.86 58.75 58.78 59.11 58.93 58.67 58.45 58.30 58.24 58.18 58.18 58.24 58.34 58.33 58.24 57.95 57.55 56.96 56.37 55.70 55.17 54.76 54.47 54.32 54.25 53.95 53.34 52.55 51.79 51.30 50.85 50.03 49.08 48.41 47.95 47.91 48.58 49.30 49.57 49.35 49.71 49.66 49.39 49.03 48.63 47.87 47.10 46.33 45.93
59.12 59.29 59.43 59.35 59.16 59.16 59.15 59.00 59.03 58.94 58.85 58.71 59.22 59.66 59.87 59.80 59.32 58.98 58.82 58.74 58.59 58.61 58.85 59.13 58.80 58.56 58.35 58.20 58.10 58.11 58.22 58.23 58.34 58.37 57.98 57.11 56.31 55.61 55.10 54.71 54.42 54.23 54.08 54.06 53.85 53.24 52.41 51.11 50.39 49.72 49.08 48.68 48.36 48.22 48.35 48.66 49.14 49.37 49.46 49.29 49.19 48.92 48.52 48.31 47.64 46.83 46.24 45.97 45.66
59.13 59.26 59.18 59.24 59.11 58.95 58.90 58.85 58.91 58.97 59.01 59.11 59.70 59.93 59.73 59.23 58.95 58.78 58.72 58.67 58.72 58.97 59.24 59.11 58.72 58.45 58.31 58.23 58.41 58.68 58.73 58.46 57.79 57.08 56.12 54.99 54.22 53.69 53.50 53.64 53.58 53.51 53.48 53.44 53.04 52.34 51.50 50.82 50.38 49.70 49.12 48.62 49.05 49.39 49.64 49.77 49.74 49.57 49.36 49.06 48.98 48.54 48.00 47.28 46.87 46.47 46.15 46.06 45.76
59.03 59.07 59.04 59.00 58.97 58.93 58.89 58.68 58.91 59.13 59.40 59.65 59.87 59.61 59.24 58.88 58.90 58.97 59.04 59.22 59.27 59.43 59.43 59.25 59.00 58.89 58.87 58.91 59.02 58.70 58.09 56.92 55.74 54.75 53.96 53.37 53.00 52.88 53.00 53.17 53.09 52.97 52.80 52.54 51.92 51.38 50.83 50.59 50.11 49.70 49.42 49.28 49.59 49.80 49.73 49.49 49.21 49.00 48.88 48.62 48.22 47.73 47.19 46.78 46.78 46.65 46.24 45.70 45.53
58.95 58.91 58.92 58.85 58.87 58.85 58.82 58.68 59.09 59.48 59.66 59.73 59.56 59.16 58.92 58.98 59.15 59.47 59.66 59.58 59.49 59.41 59.26 59.03 58.74 58.55 58.37 58.14 57.78 57.17 56.26 55.26 54.36 53.62 53.09 52.84 52.79 52.91 52.93 52.80 52.66 52.31 51.93 51.36 51.03 50.79 50.41 50.13 49.96 49.80 49.53 49.20 48.71 48.34 48.06 47.98 48.03 48.20 48.25 48.12 47.59 47.10 46.65 46.47 46.38 46.15 45.84 45.34 44.71
58.77 58.71 58.73 58.79 58.83 58.79 58.76 58.89 59.41 59.59 59.61 59.39 59.03 58.95 59.02 59.41 59.63 59.55 59.29 58.96 58.65 58.31 57.93 57.45 57.05 56.82 56.60 56.40 55.94 55.49 54.90 54.32 53.88 53.46 53.17 53.08 53.01 52.99 52.84 52.48 52.09 51.49 50.93 50.44 49.99 49.63 49.48 49.69 50.06 49.72 48.99 48.17 47.68 47.43 47.40 47.40 47.31 47.09 46.83 46.52 46.25 45.85 45.67 45.62 45.44 45.26 45.08 44.77 44.13
58.69 58.65 58.72 58.78 58.67 58.75 58.91 59.17 59.33 59.41 59.23 59.10 58.94 59.15 59.46 59.60 59.50 59.00 58.42 57.90 57.48 57.04 56.51 56.22 55.97 55.81 55.54 55.38 55.01 54.71 54.48 54.14 53.86 53.57 53.27 53.09 52.99 52.79 52.47 52.04 51.19 50.32 49.66 49.04 48.72 48.54 48.65 49.24 49.63 49.33 48.69 48.17 48.01 47.76 47.42 46.99 46.38 45.64 44.93 44.43 44.16 43.79 43.42 43.28 42.88 42.70 42.75 43.39 43.00
58.57 58.54 58.62 58.61 58.70 58.78 58.85 58.92 59.04 59.08 59.12 59.15 59.26 59.39 59.37 59.19 58.65 58.02 57.42 56.91 56.54 55.99 55.61 55.31 55.14 54.96 54.78 54.60 54.42 54.21 53.78 53.40 53.15 52.90 52.87 52.79 52.65 52.42 52.04 51.49 50.80 50.00 49.33 48.65 48.55 48.70 48.97 49.39 49.40 49.14 48.69 48.15 47.78 47.32 46.76 46.21 45.47 44.58 43.63 42.57 41.57 40.71 40.22 39.86 39.50 39.28 39.48 40.41 40.39
58.37 58.43 58.48 58.58 58.73 58.73 58.78 58.77 58.87 59.06 59.04 58.96 58.80 58.58 58.24 57.77 57.29 56.74 56.30 56.02 55.78 55.36 54.89 54.42 54.27 54.19 54.06 53.90 53.61 53.40 53.16 52.78 52.56 52.45 52.55 52.59 52.51 52.22 51.75 51.20 50.37 49.88 49.74 49.77 49.61 49.52 49.46 49.30 48.92 48.41 47.90 47.40 46.89 46.42 46.03 45.51 44.71 43.67 42.26 40.62 39.45 38.65 38.16 38.04 37.94 37.94 37.94 38.16 38.28
58.15 58.37 58.52 58.75 58.82 58.83 58.77 58.74 58.67 58.52 58.26 57.91 57.43 56.98 56.54 56.26 55.87 55.51 55.14 55.03 55.02 54.78 54.38 53.81 53.59 53.54 53.43 53.25 52.94 52.81 52.72 52.68 52.35 52.16 52.04 51.91 51.54 51.02 50.28 49.53 48.71 48.35 48.35 48.53 48.47 48.27 47.97 47.90 47.53 47.15 46.76 46.37 45.90 45.55 45.03 44.50 43.10 41.56 40.16 39.18 38.34 37.78 37.46 37.46 37.38 37.39 37.47 37.66 37.70
58.30 58.64 58.87 58.91 58.75 58.44 58.09 57.67 57.27 56.92 56.50 56.08 55.71 55.32 55.18 54.99 54.83 54.60 54.41 54.42 54.47 54.21 53.86 53.45 53.27 53.03 52.86 52.62 52.17 51.75 51.54 51.40 50.83 50.19 49.60 49.00 48.31 47.70 47.04 46.17 45.54 45.04 44.78 44.78 44.87 44.98 45.21 45.37 45.20 44.99 44.78 44.56 44.12 43.51 42.81 41.89 40.25 38.97 38.27 38.11 37.37 37.02 36.88 37.00 36.89 36.94 37.09 37.24 37.18
58.48 58.44 58.31 57.89 57.30 56.70 56.12 55.57 55.26 54.92 54.67 54.50 54.38 54.26 54.17 54.21 54.07 54.07 54.11 54.09 53.91 53.62 53.27 52.92 52.69 52.26 51.86 51.22 50.24 49.38 48.69 48.21 47.54 47.00 46.50 45.81 45.12 44.60 44.04 43.30 42.67 42.19 41.96 41.97 41.75 41.69 41.66 41.84 41.41 41.05 40.76 40.84 40.67 40.35 39.91 39.45 38.63 37.81 37.16 36.79 36.56 36.48 36.45 36.46 36.59 36.77 36.80 36.90 36.78
56.98 56.67 56.23 55.69 55.09 54.66 54.30 54.06 53.86 53.78 53.74 53.73 53.79 53.66 53.62 53.65 53.63 53.67 53.57 53.36 52.96 52.37 51.87 51.52 51.11 50.45 49.81 49.04 48.07 47.19 46.39 45.73 45.27 44.93 44.64 44.18 43.54 43.12 42.65 42.15 41.33 40.34 39.65 39.87 38.54 37.62 37.42 38.12 37.33 36.79 36.82 37.61 37.54 37.74 38.05 38.38 37.77 36.67 35.72 35.64 35.96 36.13 36.15 36.20 36.28 36.37 36.62 36.90 36.78
54.90 54.67 54.48 54.20 53.77 53.44 53.32 53.28 53.29 53.21 53.26 53.22 53.26 53.21 53.19 53.12 53.01 52.78 52.35 51.78 51.07 50.27 49.76 49.63 49.03 48.41 47.79 47.28 46.54 45.89 45.20 44.50 44.04 43.75 43.63 43.59 43.29 43.08 42.69 42.25 41.04 39.18 38.20 39.46 39.16 38.34 37.44 37.02 35.24 34.96 35.87 37.50 37.70 37.71 37.43 36.55 34.68 34.33 34.82 35.62 35.91 36.02 36.08 36.19 36.27 36.42 36.64 36.70 36.84
53.45 53.30 53.14 53.03 52.83 52.74 52.74 52.70 52.57 52.54 52.49 52.57 52.55 52.52 52.43 52.20 51.81 51.22 50.44 49.60 48.79 48.09 47.76 47.66 47.49 47.19 46.82 46.32 45.88 45.31 44.79 44.23 43.75 43.38 43.25 43.38 43.59 43.54 43.28 42.61 41.17 38.91 38.59 42.98 44.22 44.18 43.15 41.57 39.14 38.00 38.02 39.07 39.07 38.62 37.43 35.19 34.84 35.57 36.41 36.50 36.20 35.98 35.82 35.90 36.05 36.38 36.44 36.32 36.37
52.59 52.44 52.24 52.16 52.11 52.06 52.06 51.93 51.84 51.74 51.63 51.68 51.45 51.22 50.89 50.51 49.94 49.09 48.16 47.34 46.70 46.41 46.32 46.39 46.54 46.61 46.52 46.03 45.56 45.16 44.77 44.33 43.73 43.33 43.13 43.04 43.03 43.02 42.83 42.38 41.40 38.32 37.74 44.01 45.61 45.86 45.31 44.90 43.96 42.28 40.57 39.47 39.23 38.63 37.49 35.77 36.31 36.74 36.70 36.34 35.94 35.41 34.94 34.56 34.55 34.98 35.51 35.78 35.47
52.11 51.77 51.65 51.74 51.65 51.61 51.47 51.46 51.31 51.01 50.70 50.37 50.00 49.55 49.11 48.66 47.87 47.01 46.18 45.58 45.26 45.26 45.37 45.72 46.19 46.58 46.62 45.99 45.38 44.92 44.45 44.18 43.86 43.42 43.08 42.69 42.40 42.15 41.99 42.06 41.92 40.92 41.26 45.12 46.22 46.29 46.00 45.75 45.37 44.13 42.23 39.66 38.70 37.41 36.33 36.13 36.06 35.98 35.82 35.52 35.10 34.76 34.21 33.56 33.22 33.23 33.41 33.36 33.46
51.58 51.50 51.45 51.45 51.28 51.15 51.09 50.93 50.58 50.14 49.70 49.23 48.70 48.14 47.48 47.00 46.16 45.48 45.01 44.78 44.66 44.87 45.23 45.67 46.32 46.69 46.63 46.19 45.60 45.17 44.82 44.58 44.09 43.58 43.01 42.68 42.21 42.04 41.97 42.10 42.56 43.84 45.38 46.74 46.65 46.48 46.22 45.88 45.42 44.56 43.10 40.75 38.53 37.29 36.45 35.58 35.66 35.49 35.30 34.95 34.56 33.94 33.29 32.90 32.98 32.72 32.33 31.95 32.02
51.32 51.22 51.09 50.87 50.69 50.54 50.38 50.08 49.65 49.12 48.67 48.09 47.60 46.99 46.44 45.87 45.22 44.66 44.47 44.44 44.57 44.69 45.07 45.72 46.63 46.72 46.46 46.02 45.79 45.43 44.94 44.26 43.74 43.16 42.75 42.41 42.20 42.09 41.95 41.68 42.06 43.61 45.38 46.61 46.44 46.14 45.76 45.33 44.69 43.92 42.86 41.18 38.55 36.96 36.14 35.54 35.42 35.26 34.96 34.69 34.00 33.46 32.96 32.70 32.61 32.31 31.99 31.70 31.68
51.07 50.85 50.63 50.27 49.99 49.74 49.44 49.09 48.70 48.23 47.84 47.46 46.87 46.37 45.92 45.41 45.03 44.79 44.77 44.85 44.78 45.04 45.58 46.31 46.68 46.56 46.21 45.81 45.48 44.95 44.22 43.51 43.16 42.76 42.35 42.01 41.87 41.82 41.73 41.56 41.57 42.86 44.51 45.79 45.67 45.42 44.99 44.52 43.84 43.12 42.14 40.89 38.47 36.58 35.34 34.96 34.51 34.36 34.29 34.25 33.48 32.87 32.51 32.43 31.95 31.63 31.46 31.59 31.40
50.69 50.33 49.98 49.45 49.02 48.63 48.36 48.14 47.84 47.53 47.17 46.82 46.30 45.82 45.46 45.19 45.04 45.09 45.26 45.43 45.61 46.16 46.66 46.79 46.35 45.91 45.45 44.99 44.43 43.73 43.16 42.81 42.46 41.96 41.64 41.33 41.39 41.12 40.67 40.47 40.63 42.04 43.78 45.02 44.81 44.56 44.22 43.71 42.99 42.27 41.47 40.40 38.07 35.96 34.45 34.06 33.82 33.69 33.60 33.39 32.91 32.51 32.23 32.05 31.72 31.50 31.28 31.10 30.78
49.99 49.54 49.01 48.35 47.88 47.66 47.39 47.13 46.86 46.49 46.17 45.82 45.42 45.11 44.92 44.72 44.82 45.11 45.53 45.94 46.25 46.38 46.32 45.99 45.28 44.56 43.91 43.34 42.81 42.28 41.87 41.61 41.21 40.90 40.56 40.27 40.08 39.92 39.92 39.84 39.98 41.28 42.97 44.17 44.05 43.80 43.38 42.92 42.25 41.54 40.82 39.88 37.60 35.29 33.61 33.32 33.06 32.79 32.60 32.35 32.11 31.95 31.81 32.15 31.69 31.05 30.65 30.47 30.06
49.02 48.40 47.84 47.18 46.89 46.59 46.42 46.07 45.78 45.51 45.20 44.97 44.74 44.59 44.43 44.57 44.87 45.28 45.73 46.04 45.93 45.61 45.11 44.56 43.79 43.00 42.37 41.83 41.39 41.08 40.73 40.56 40.31 40.18 39.89 39.29 38.82 38.51 38.46 38.71 39.02 40.87 42.70 43.42 43.25 42.96 42.59 42.09 41.51 40.89 40.18 39.33 36.76 34.47 32.86 32.87 33.11 32.74 32.22 31.83 31.49 31.16 30.87 30.62 30.67 30.47 30.11 29.92 29.64
47.92 47.27 46.64 46.00 45.80 45.65 45.43 45.14 45.07 44.84 44.57 44.33 44.26 44.22 44.31 44.48 44.70 44.87 45.12 45.30 45.02 44.47 43.80 43.20 42.55 41.97 41.40 40.87 40.34 39.91 39.53 39.43 38.69 38.07 37.66 37.38 37.19 37.05 37.05 37.08 38.32 40.60 42.54 42.71 42.55 42.26 41.85 41.44 40.82 40.24 39.62 38.73 35.80 33.50 32.15 32.16 32.52 32.32 31.78 31.30 30.88 30.68 30.55 30.31 30.14 29.97 29.76 29.49 29.34
46.78 46.07 45.45 45.07 45.02 44.88 44.72 44.56 44.44 44.20 43.96 43.73 43.73 43.73 43.82 43.91 43.75 43.75 43.84 44.09 43.59 42.79 42.07 41.60 41.13 40.58 40.07 39.51 38.95 38.39 37.92 37.41 36.80 36.43 36.22 36.06 35.99 35.96 35.94 35.85 37.26 39.75 41.84 41.96 41.93 41.60 41.27 40.87 40.38 39.76 38.92 37.36 34.38 32.49 31.47 31.29 31.60 31.46 31.12 30.81 30.52 30.32 30.11 30.09 30.04 29.88 29.59 29.37 28.78
45.60 44.99 44.58 44.33 44.37 44.24 44.16 44.00 43.80 43.47 43.23 43.04 42.96 43.00 42.96 42.92 42.79 42.75 42.79 42.79 41.91 40.95 40.15 39.69 39.33 38.79 38.23 37.73 37.48 37.21 36.65 35.76 35.48 35.32 35.29 35.16 34.84 34.52 34.47 34.65 35.81 38.40 40.75 41.31 41.23 41.07 40.87 40.38 39.97 39.38 38.11 35.43 32.74 31.53 31.16 31.27 31.25 30.93 30.50 30.25 30.05 29.83 29.72 29.93 29.88 29.76 29.58 29.45 28.81
44.73 44.25 43.89 43.68 43.72 43.56 43.47 43.31 43.07 42.71 42.50 42.34 42.17 42.01 41.88 41.75 41.71 41.71 41.59 41.43 40.18 39.30 38.63 38.21 37.80 37.27 36.85 36.47 36.22 36.00 35.65 35.26 34.95 34.81 34.84 34.97 34.42 33.95 33.75 33.88 34.45 36.86 39.42 40.76 40.73 40.58 40.34 40.06 39.73 38.87 36.96 33.24 31.17 30.56 30.73 30.68 30.61 30.30 29.86 29.60 29.37 29.23 29.39 29.84 29.55 29.40 29.46 29.73 30.30
44.16 43.81 43.44 43.12 42.95 42.87 42.83 42.62 42.22 41.89 41.68 41.59 41.43 41.34 41.18 40.97 40.77 40.69 40.69 40.45 39.12 38.20 37.64 37.21 36.76 36.44 36.16 35.95 35.77 35.50 35.26 35.33 35.17 34.86 34.45 34.34 34.24 33.95 33.66 33.45 33.78 35.67 38.09 40.05 40.23 40.21 39.93 39.74 39.48 38.53 36.22 32.09 30.05 29.74 30.12 30.03 29.52 29.21 29.05 28.77 28.55 28.48 28.67 29.27 29.00 29.01 29.42 30.54 33.43
43.68 43.36 42.95 42.54 42.34 42.22 42.18 41.93 41.56 41.27 41.01 40.85 40.68 40.56 40.44 40.20 40.03 40.00 40.00 39.84 38.68 37.92 37.19 36.66 36.29 36.26 36.33 36.36 35.96 35.66 35.36 35.41 35.51 35.27 34.79 34.25 34.70 34.96 34.64 33.45 33.66 35.23 37.57 39.62 39.81 39.87 39.64 39.48 39.20 38.62 36.94 33.34 30.18 29.49 29.67 29.38 28.41 28.02 27.81 27.55 27.47 27.34 27.45 27.88 27.97 28.11 28.59 29.90 34.12
43.23 42.91 42.50 42.13 41.89 41.72 41.48 41.23 40.94 40.73 40.56 40.31 40.02 39.85 39.77 39.70 39.87 39.88 39.76 39.36 38.53 37.90 37.29 36.75 36.43 36.53 36.79 37.02 36.10 35.51 35.16 35.18 35.26 35.33 35.30 35.05 35.74 36.24 35.89 33.85 33.64 34.95 36.94 39.10 39.51 39.57 39.42 39.19 38.90 38.41 36.70 33.13 30.14 29.33 29.33 28.62 27.57 26.98 26.67 26.53 26.50 26.40 26.32 26.35 26.68 26.76 26.93 27.29 30.82
42.74 42.42 42.05 41.77 41.52 41.19 40.86 40.44 40.19 40.02 39.98 39.81 39.60 39.73 39.90 39.99 39.83 39.47 39.23 38.86 38.32 37.90 37.55 37.06 36.68 36.67 36.84 37.08 36.21 35.41 34.91 34.62 34.62 34.76 34.97 35.29 35.55 35.88 35.52 33.72 33.35 33.90 35.38 37.68 38.96 39.32 39.20 38.97 38.65 38.21 36.71 33.48 30.20 29.01 28.70 27.88 26.70 26.00 25.63 25.45 25.64 25.67 25.49 25.22 25.39 25.51 25.48 25.07 26.29
MSLP
1007.87 1008.07 1008.31 1008.55 1008.83 1009.07 1009.31 1009.51 1009.75 1009.95 1010.15 1010.35 1010.55 1010.75 1010.95 1011.11 1011.35 1011.51 1011.71 1011.91 1012.07 1012.23 1012.35 1012.51 1012.63 1012.71 1012.79 1012.91 1013.03 1013.19 1013.27 1013.43 1013.63 1013.79 1013.99 1014.23 1014.39 1014.59 1014.71 1014.87 1015.03 1015.23 1015.35 1015.55 1015.71 1015.91 1016.07 1016.19 1016.35 1016.51 1016.67 1016.87 1017.07 1017.23 1017.35 1017.51 1017.63 1017.75 1017.91 1018.07 1018.23 1018.35 1018.51 1018.63 1018.75 1018.83 1018.95 1019.11 1019.23
1007.79 1007.99 1008.23 1008.51 1008.71 1008.99 1009.23 1009.51 1009.71 1009.91 1010.07 1010.23 1010.43 1010.63 1010.79 1010.99 1011.23 1011.43 1011.67 1011.79 1011.99 1012.11 1012.27 1012.39 1012.51 1012.63 1012.75 1012.87 1012.95 1013.07 1013.27 1013.43 1013.59 1013.79 1013.95 1014.19 1014.35 1014.51 1014.71 1014.87 1015.03 1015.19 1015.35 1015.59 1015.79 1015.95 1016.07 1016.23 1016.39 1016.55 1016.75 1016.95 1017.07 1017.23 1017.39 1017.51 1017.63 1017.79 1017.99 1018.15 1018.31 1018.43 1018.55 1018.67 1018.79 1018.95 1019.07 1019.19 1019.23
1007.79 1007.95 1008.19 1008.47 1008.71 1008.95 1009.23 1009.47 1009.67 1009.87 1010.07 1010.23 1010.35 1010.51 1010.71 1010.95 1011.11 1011.35 1011.55 1011.71 1011.87 1012.07 1012.23 1012.35 1012.43 1012.55 1012.71 1012.83 1012.95 1013.07 1013.23 1013.39 1013.55 1013.75 1013.95 1014.15 1014.27 1014.43 1014.63 1014.79 1014.99 1015.19 1015.35 1015.59 1015.79 1015.95 1016.07 1016.27 1016.43 1016.63 1016.87 1017.07 1017.23 1017.43 1017.63 1017.75 1017.83 1017.95 1018.15 1018.31 1018.47 1018.59 1018.71 1018.79 1018.91 1018.99 1019.11 1019.23 1019.31
1007.75 1007.95 1008.19 1008.43 1008.63 1008.91 1009.11 1009.35 1009.59 1009.83 1010.03 1010.19 1010.35 1010.51 1010.67 1010.87 1011.07 1011.27 1011.51 1011.67 1011.83 1011.99 1012.11 1012.23 1012.35 1012.47 1012.63 1012.79 1012.95 1013.07 1013.23 1013.35 1013.51 1013.71 1013.91 1014.07 1014.23 1014.43 1014.63 1014.83 1015.03 1015.23 1015.39 1015.59 1015.79 1015.95 1016.15 1016.35 1016.55 1016.79 1017.03 1017.23 1017.43 1017.67 1017.83 1017.99 1018.07 1018.23 1018.35 1018.51 1018.67 1018.79 1018.91 1018.95 1019.07 1019.11 1019.23 1019.35 1019.43
1007.71 1007.91 1008.11 1008.35 1008.59 1008.83 1009.07 1009.27 1009.51 1009.75 1009.95 1010.15 1010.35 1010.51 1010.67 1010.83 1011.03 1011.23 1011.47 1011.67 1011.79 1011.95 1012.07 1012.15 1012.23 1012.39 1012.55 1012.75 1012.95 1013.07 1013.23 1013.35 1013.51 1013.71 1013.95 1014.11 1014.27 1014.47 1014.63 1014.83 1015.03 1015.23 1015.39 1015.63 1015.83 1016.07 1016.27 1016.47 1016.71 1016.95 1017.19 1017.35 1017.55 1017.79 1017.95 1018.07 1018.19 1018.35 1018.51 1018.67 1018.79 1018.87 1018.95 1019.07 1019.11 1019.23 1019.31 1019.43 1019.47
1007.67 1007.87 1008.07 1008.35 1008.55 1008.79 1009.03 1009.27 1009.47 1009.67 1009.91 1010.11 1010.35 1010.51 1010.67 1010.87 1011.07 1011.23 1011.47 1011.67 1011.79 1011.95 1012.03 1012.15 1012.27 1012.43 1012.59 1012.79 1012.95 1013.07 1013.23 1013.39 1013.55 1013.71 1013.91 1014.15 1014.35 1014.51 1014.75 1014.91 1015.03 1015.23 1015.39 1015.63 1015.83 1016.07 1016.31 1016.51 1016.79 1017.03 1017.23 1017.47 1017.67 1017.91 1018.03 1018.07 1018.23 1018.39 1018.59 1018.79 1018.91 1018.95 1018.99 1019.07 1019.19 1019.23 1019.31 1019.39 1019.51
1007.59 1007.83 1008.07 1008.35 1008.55 1008.79 1009.03 1009.27 1009.47 1009.67 1009.91 1010.11 1010.31 1010.51 1010.75 1010.91 1011.07 1011.27 1011.51 1011.67 1011.79 1011.95 1012.07 1012.19 1012.35 1012.51 1012.71 1012.87 1012.99 1013.15 1013.31 1013.47 1013.55 1013.75 1013.95 1014.19 1014.39 1014.55 1014.75 1014.91 1015.03 1015.23 1015.39 1015.55 1015.75 1015.99 1016.23 1016.51 1016.83 1017.11 1017.35 1017.59 1017.79 1017.95 1018.03 1018.11 1018.23 1018.43 1018.63 1018.83 1018.95 1018.99 1019.03 1019.11 1019.23 1019.27 1019.35 1019.43 1019.51
1007.51 1007.79 1008.03 1008.31 1008.51 1008.79 1009.03 1009.23 1009.43 1009.67 1009.95 1010.11 1010.35 1010.51 1010.67 1010.87 1011.07 1011.31 1011.51 1011.67 1011.79 1011.95 1012.07 1012.27 1012.47 1012.63 1012.79 1012.95 1013.07 1013.23 1013.39 1013.59 1013.71 1013.87 1014.07 1014.23 1014.47 1014.63 1014.79 1015.03 1015.23 1015.43 1015.63 1015.79 1016.03 1016.23 1016.47 1016.67 1016.95 1017.23 1017.47 1017.63 1017.83 1017.99 1018.07 1018.19 1018.31 1018.51 1018.71 1018.91 1018.99 1019.07 1019.11 1019.23 1019.27 1019.35 1019.43 1019.51 1019.59
1007.51 1007.79 1008.03 1008.27 1008.51 1008.79 1008.99 1009.23 1009.43 1009.67 1009.91 1010.15 1010.35 1010.51 1010.67 1010.87 1011.07 1011.31 1011.51 1011.75 1011.91 1011.99 1012.15 1012.35 1012.51 1012.71 1012.87 1013.03 1013.15 1013.27 1013.47 1013.67 1013.83 1014.03 1014.23 1014.35 1014.59 1014.91 1015.19 1015.43 1015.67 1015.91 1016.07 1016.23 1016.39 1016.51 1016.71 1016.91 1017.11 1017.31 1017.51 1017.67 1017.91 1018.07 1018.19 1018.27 1018.39 1018.55 1018.75 1018.91 1019.03 1019.11 1019.23 1019.27 1019.35 1019.47 1019.55 1019.63 1019.71
1007.51 1007.79 1008.03 1008.31 1008.51 1008.75 1008.95 1009.23 1009.43 1009.67 1009.87 1010.07 1010.31 1010.51 1010.67 1010.91 1011.11 1011.35 1011.59 1011.79 1011.95 1012.07 1012.27 1012.47 1012.63 1012.79 1012.95 1013.11 1013.27 1013.43 1013.59 1013.79 1013.95 1014.15 1014.35 1014.51 1014.79 1015.07 1015.35 1015.55 1015.79 1015.99 1016.23 1016.35 1016.51 1016.67 1016.87 1017.07 1017.31 1017.51 1017.67 1017.79 1017.99 1018.19 1018.31 1018.39 1018.51 1018.63 1018.75 1018.91 1019.07 1019.19 1019.31 1019.39 1019.51 1019.63 1019.71 1019.79 1019.87
1007.51 1007.75 1008.03 1008.27 1008.51 1008.75 1008.95 1009.23 1009.51 1009.67 1009.87 1010.07 1010.31 1010.51 1010.71 1010.95 1011.23 1011.47 1011.67 1011.79 1012.03 1012.23 1012.39 1012.55 1012.71 1012.87 1013.07 1013.23 1013.35 1013.59 1013.75 1013.95 1014.07 1014.27 1014.47 1014.67 1014.95 1015.23 1015.51 1015.71 1015.91 1016.11 1016.35 1016.51 1016.67 1016.83 1016.99 1017.23 1017.43 1017.67 1017.79 1017.95 1018.11 1018.23 1018.35 1018.43 1018.55 1018.63 1018.79 1018.95 1019.07 1019.23 1019.35 1019.55 1019.67 1019.75 1019.83 1019.91 1019.95
1007.47 1007.75 1008.03 1008.27 1008.51 1008.75 1008.99 1009.27 1009.51 1009.71 1009.91 1010.11 1010.31 1010.51 1010.79 1011.07 1011.35 1011.55 1011.71 1011.91 1012.11 1012.27 1012.47 1012.63 1012.79 1012.95 1013.11 1013.35 1013.51 1013.71 1013.87 1014.07 1014.23 1014.43 1014.67 1014.95 1015.23 1015.47 1015.67 1015.95 1016.11 1016.31 1016.51 1016.63 1016.79 1016.95 1017.15 1017.35 1017.55 1017.79 1017.95 1018.07 1018.23 1018.31 1018.39 1018.51 1018.59 1018.67 1018.83 1018.99 1019.15 1019.35 1019.51 1019.67 1019.79 1019.87 1019.95 1019.99 1020.07
1007.47 1007.79 1008.07 1008.31 1008.51 1008.79 1009.03 1009.27 1009.51 1009.71 1009.91 1010.15 1010.35 1010.63 1010.95 1011.23 1011.43 1011.63 1011.79 1011.95 1012.11 1012.31 1012.51 1012.71 1012.91 1013.07 1013.23 1013.43 1013.67 1013.87 1014.07 1014.23 1014.39 1014.63 1014.95 1015.23 1015.47 1015.71 1015.95 1016.11 1016.31 1016.47 1016.63 1016.79 1016.95 1017.11 1017.31 1017.47 1017.67 1017.79 1017.99 1018.11 1018.23 1018.35 1018.43 1018.51 1018.63 1018.79 1018.95 1019.15 1019.31 1019.51 1019.67 1019.79 1019.91 1019.95 1020.07 1020.11 1020.19
1007.51 1007.79 1008.07 1008.31 1008.55 1008.79 1009.07 1009.31 1009.51 1009.71 1009.91 1010.19 1010.47 1010.79 1011.07 1011.31 1011.47 1011.63 1011.79 1011.99 1012.23 1012.51 1012.67 1012.87 1013.07 1013.23 1013.35 1013.55 1013.79 1014.07 1014.35 1014.51 1014.75 1014.95 1015.23 1015.43 1015.67 1015.87 1016.07 1016.31 1016.47 1016.63 1016.79 1016.95 1017.07 1017.23 1017.35 1017.51 1017.67 1017.79 1017.95 1018.11 1018.23 1018.35 1018.51 1018.63 1018.75 1018.91 1019.07 1019.31 1019.51 1019.67 1019.83 1019.95 1020.03 1020.11 1020.19 1020.23 1020.35
1007.59 1007.87 1008.07 1008.31 1008.59 1008.79 1009.07 1009.31 1009.51 1009.75 1009.99 1010.35 1010.63 1010.91 1011.15 1011.35 1011.51 1011.71 1011.95 1012.23 1012.51 1012.75 1012.95 1013.11 1013.31 1013.51 1013.67 1013.79 1014.03 1014.27 1014.55 1014.79 1014.99 1015.23 1015.43 1015.63 1015.79 1015.99 1016.23 1016.43 1016.63 1016.75 1016.87 1016.99 1017.15 1017.27 1017.39 1017.55 1017.67 1017.83 1017.95 1018.15 1018.35 1018.51 1018.63 1018.79 1018.91 1019.07 1019.23 1019.47 1019.67 1019.87 1019.99 1020.07 1020.15 1020.23 1020.31 1020.35 1020.47
1007.67 1007.91 1008.15 1008.39 1008.63 1008.87 1009.07 1009.31 1009.51 1009.79 1010.15 1010.51 1010.75 1010.95 1011.15 1011.39 1011.67 1011.95 1012.23 1012.51 1012.75 1012.95 1013.11 1013.31 1013.51 1013.79 1013.95 1014.15 1014.31 1014.51 1014.75 1014.95 1015.15 1015.35 1015.55 1015.75 1015.95 1016.15 1016.35 1016.55 1016.71 1016.83 1016.95 1017.07 1017.23 1017.35 1017.51 1017.63 1017.75 1017.91 1018.07 1018.27 1018.47 1018.63 1018.79 1018.91 1019.07 1019.27 1019.47 1019.67 1019.83 1020.03 1020.15 1020.23 1020.31 1020.35 1020.43 1020.47 1020.51
1007.71 1007.95 1008.23 1008.47 1008.67 1008.95 1009.15 1009.39 1009.67 1009.99 1010.31 1010.59 1010.79 1010.99 1011.27 1011.59 1011.91 1012.19 1012.43 1012.67 1012.87 1013.07 1013.31 1013.51 1013.71 1013.95 1014.23 1014.43 1014.59 1014.75 1014.91 1015.11 1015.31 1015.51 1015.71 1015.91 1016.11 1016.31 1016.51 1016.67 1016.83 1016.99 1017.11 1017.23 1017.35 1017.51 1017.67 1017.79 1017.87 1018.03 1018.23 1018.39 1018.59 1018.75 1018.95 1019.07 1019.31 1019.51 1019.71 1019.87 1020.03 1020.19 1020.31 1020.35 1020.43 1020.51 1020.51 1020.55 1020.63
1007.79 1008.07 1008.27 1008.51 1008.79 1009.03 1009.31 1009.55 1009.87 1010.15 1010.39 1010.63 1010.95 1011.19 1011.51 1011.79 1012.11 1012.39 1012.63 1012.83 1013.03 1013.23 1013.51 1013.71 1013.95 1014.15 1014.39 1014.63 1014.83 1014.95 1015.11 1015.35 1015.51 1015.75 1015.95 1016.11 1016.35 1016.51 1016.71 1016.91 1017.03 1017.11 1017.23 1017.35 1017.51 1017.67 1017.79 1017.95 1018.07 1018.23 1018.39 1018.59 1018.75 1018.91 1019.07 1019.27 1019.51 1019.71 1019.91 1020.07 1020.23 1020.35 1020.47 1020.51 1020.59 1020.63 1020.71 1020.79 1020.83
1007.87 1008.11 1008.35 1008.63 1008.91 1009.19 1009.47 1009.71 1010.03 1010.31 1010.55 1010.79 1011.11 1011.43 1011.75 1012.07 1012.31 1012.55 1012.83 1013.07 1013.23 1013.39 1013.67 1013.95 1014.15 1014.35 1014.55 1014.83 1015.03 1015.23 1015.35 1015.59 1015.79 1015.99 1016.19 1016.35 1016.55 1016.75 1016.95 1017.07 1017.23 1017.31 1017.39 1017.51 1017.67 1017.83 1017.99 1018.19 1018.35 1018.51 1018.63 1018.79 1018.95 1019.11 1019.31 1019.51 1019.67 1019.91 1020.07 1020.23 1020.39 1020.51 1020.59 1020.63 1020.71 1020.79 1020.87 1020.95 1021.07
1007.95 1008.23 1008.47 1008.71 1008.99 1009.31 1009.63 1009.91 1010.23 1010.51 1010.79 1011.07 1011.35 1011.67 1011.99 1012.27 1012.51 1012.75 1013.03 1013.23 1013.43 1013.63 1013.79 1014.03 1014.23 1014.51 1014.71 1014.99 1015.23 1015.43 1015.63 1015.79 1015.99 1016.19 1016.35 1016.55 1016.79 1016.99 1017.23 1017.35 1017.51 1017.59 1017.67 1017.79 1017.91 1018.07 1018.23 1018.39 1018.59 1018.71 1018.83 1018.95 1019.15 1019.35 1019.51 1019.71 1019.91 1020.07 1020.27 1020.39 1020.55 1020.63 1020.71 1020.79 1020.87 1020.95 1021.03 1021.11 1021.23
1008.03 1008.27 1008.51 1008.79 1009.11 1009.47 1009.83 1010.15 1010.47 1010.75 1011.07 1011.35 1011.67 1011.95 1012.23 1012.51 1012.75 1012.95 1013.19 1013.43 1013.63 1013.79 1013.95 1014.11 1014.35 1014.63 1014.91 1015.19 1015.43 1015.67 1015.87 1016.07 1016.27 1016.47 1016.67 1016.91 1017.15 1017.35 1017.55 1017.67 1017.79 1017.95 1018.03 1018.11 1018.23 1018.35 1018.51 1018.67 1018.83 1018.95 1019.07 1019.23 1019.39 1019.55 1019.75 1019.95 1020.11 1020.31 1020.43 1020.55 1020.67 1020.79 1020.83 1020.95 1021.07 1021.15 1021.23 1021.27 1021.35
1008.15 1008.39 1008.71 1009.07 1009.43 1009.79 1010.15 1010.47 1010.71 1010.99 1011.31 1011.67 1011.95 1012.23 1012.51 1012.79 1012.99 1013.19 1013.35 1013.55 1013.71 1013.87 1014.07 1014.31 1014.51 1014.83 1015.11 1015.39 1015.67 1015.95 1016.19 1016.43 1016.63 1016.87 1017.07 1017.31 1017.55 1017.75 1017.91 1017.99 1018.11 1018.23 1018.35 1018.51 1018.63 1018.75 1018.91 1019.03 1019.15 1019.27 1019.39 1019.51 1019.67 1019.79 1019.95 1020.07 1020.27 1020.47 1020.59 1020.71 1020.79 1020.91 1020.99 1021.07 1021.23 1021.27 1021.35 1021.39 1021.43
1008.47 1008.79 1009.15 1009.51 1009.79 1010.11 1010.43 1010.71 1010.99 1011.31 1011.63 1011.95 1012.19 1012.47 1012.75 1013.03 1013.23 1013.35 1013.51 1013.67 1013.83 1014.03 1014.27 1014.51 1014.83 1015.11 1015.39 1015.67 1015.91 1016.15 1016.39 1016.67 1016.95 1017.15 1017.35 1017.51 1017.75 1017.95 1018.11 1018.23 1018.35 1018.51 1018.71 1018.87 1018.99 1019.11 1019.23 1019.35 1019.51 1019.59 1019.67 1019.79 1019.95 1020.07 1020.15 1020.27 1020.47 1020.63 1020.79 1020.91 1020.95 1021.03 1021.11 1021.23 1021.35 1021.39 1021.47 1021.51 1021.55
1008.79 1009.15 1009.51 1009.79 1010.07 1010.35 1010.63 1010.95 1011.23 1011.59 1011.87 1012.15 1012.39 1012.63 1012.95 1013.23 1013.43 1013.55 1013.67 1013.79 1014.03 1014.23 1014.51 1014.79 1015.11 1015.43 1015.71 1015.95 1016.19 1016.35 1016.59 1016.79 1017.07 1017.35 1017.55 1017.71 1017.91 1018.11 1018.27 1018.39 1018.59 1018.79 1018.99 1019.15 1019.23 1019.35 1019.51 1019.63 1019.75 1019.79 1019.87 1019.95 1020.07 1020.19 1020.35 1020.51 1020.67 1020.79 1020.91 1020.95 1021.07 1021.19 1021.27 1021.35 1021.43 1021.51 1021.59 1021.67 1021.67
1009.11 1009.43 1009.75 1010.03 1010.31 1010.59 1010.87 1011.23 1011.55 1011.83 1012.11 1012.35 1012.59 1012.83 1013.11 1013.39 1013.55 1013.71 1013.83 1014.07 1014.27 1014.51 1014.79 1015.07 1015.35 1015.63 1015.91 1016.15 1016.35 1016.59 1016.79 1016.99 1017.23 1017.47 1017.67 1017.91 1018.07 1018.27 1018.43 1018.63 1018.79 1019.03 1019.15 1019.23 1019.27 1019.39 1019.51 1019.67 1019.79 1019.91 1019.99 1020.07 1020.23 1020.35 1020.51 1020.63 1020.79 1020.87 1020.95 1021.07 1021.19 1021.31 1021.43 1021.51 1021.59 1021.67 1021.71 1021.79 1021.83
1009.35 1009.67 1009.99 1010.27 1010.55 1010.83 1011.19 1011.51 1011.79 1012.07 1012.27 1012.51 1012.67 1012.95 1013.27 1013.59 1013.79 1013.95 1014.11 1014.35 1014.63 1014.83 1015.03 1015.27 1015.55 1015.79 1016.07 1016.27 1016.51 1016.71 1016.95 1017.23 1017.47 1017.67 1017.87 1018.07 1018.31 1018.51 1018.71 1018.91 1019.03 1019.23 1019.35 1019.27 1019.35 1019.47 1019.63 1019.75 1019.87 1019.99 1020.07 1020.23 1020.35 1020.47 1020.63 1020.79 1020.91 1020.99 1021.07 1021.23 1021.35 1021.47 1021.59 1021.71 1021.79 1021.83 1021.87 1021.91 1021.95
1009.55 1009.91 1010.23 1010.51 1010.79 1011.11 1011.43 1011.71 1011.95 1012.23 1012.43 1012.63 1012.83 1013.15 1013.51 1013.83 1014.03 1014.23 1014.39 1014.63 1014.91 1015.07 1015.23 1015.47 1015.71 1015.95 1016.19 1016.35 1016.59 1016.83 1017.11 1017.47 1017.71 1017.95 1018.11 1018.35 1018.55 1018.79 1019.03 1019.19 1019.27 1019.39 1019.51 1019.47 1019.51 1019.63 1019.75 1019.83 1019.95 1020.07 1020.23 1020.39 1020.51 1020.71 1020.91 1021.03 1021.11 1021.23 1021.35 1021.47 1021.59 1021.67 1021.79 1021.91 1021.99 1022.03 1022.07 1022.11 1022.15
1009.75 1010.07 1010.39 1010.67 1011.03 1011.35 1011.67 1011.87 1012.11 1012.35 1012.63 1012.83 1013.07 1013.43 1013.79 1014.07 1014.27 1014.43 1014.63 1014.91 1015.11 1015.27 1015.47 1015.67 1015.87 1016.07 1016.27 1016.51 1016.79 1017.07 1017.39 1017.71 1017.99 1018.23 1018.39 1018.63 1018.87 1019.07 1019.23 1019.35 1019.47 1019.51 1019.55 1019.59 1019.67 1019.79 1019.91 1019.99 1020.11 1020.23 1020.35 1020.51 1020.71 1020.91 1021.07 1021.23 1021.35 1021.47 1021.63 1021.71 1021.79 1021.95 1022.03 1022.07 1022.15 1022.19 1022.23 1022.31 1022.35
1009.95 1010.23 1010.55 1010.91 1011.23 1011.55 1011.79 1012.07 1012.31 1012.59 1012.83 1013.11 1013.35 1013.67 1013.95 1014.27 1014.51 1014.67 1014.91 1015.11 1015.27 1015.47 1015.67 1015.87 1016.07 1016.27 1016.51 1016.79 1017.07 1017.35 1017.71 1018.07 1018.31 1018.51 1018.75 1018.95 1019.15 1019.35 1019.51 1019.59 1019.67 1019.71 1019.75 1019.79 1019.87 1019.95 1020.07 1020.23 1020.31 1020.43 1020.59 1020.79 1020.95 1021.15 1021.31 1021.47 1021.55 1021.71 1021.83 1021.95 1022.07 1022.15 1022.23 1022.31 1022.35 1022.39 1022.47 1022.55 1022.63
1010.11 1010.43 1010.75 1011.07 1011.43 1011.75 1011.99 1012.23 1012.51 1012.79 1013.07 1013.35 1013.59 1013.87 1014.15 1014.43 1014.67 1014.91 1015.07 1015.27 1015.47 1015.67 1015.83 1015.99 1016.19 1016.43 1016.71 1017.07 1017.35 1017.67 1018.07 1018.35 1018.63 1018.83 1019.03 1019.19 1019.39 1019.59 1019.71 1019.79 1019.87 1019.95 1019.95 1020.03 1020.07 1020.19 1020.27 1020.43 1020.55 1020.67 1020.87 1021.03 1021.23 1021.43 1021.59 1021.71 1021.83 1021.95 1022.07 1022.19 1022.27 1022.35 1022.43 1022.51 1022.59 1022.63 1022.75 1022.79 1022.91
1010.31 1010.59 1010.95 1011.27 1011.63 1011.91 1012.19 1012.43 1012.71 1013.03 1013.31 1013.55 1013.79 1014.03 1014.27 1014.59 1014.87 1015.07 1015.23 1015.43 1015.67 1015.83 1015.99 1016.15 1016.39 1016.71 1017.07 1017.39 1017.71 1018.07 1018.35 1018.63 1018.91 1019.07 1019.23 1019.39 1019.59 1019.79 1019.95 1020.03 1020.11 1020.19 1020.23 1020.23 1020.31 1020.39 1020.51 1020.63 1020.79 1020.95 1021.07 1021.27 1021.47 1021.67 1021.83 1021.95 1022.07 1022.23 1022.35 1022.43 1022.51 1022.63 1022.67 1022.75 1022.83 1022.95 1022.99 1023.07 1023.23
1010.51 1010.79 1011.07 1011.43 1011.79 1012.07 1012.35 1012.63 1012.95 1013.23 1013.51 1013.75 1013.99 1014.23 1014.51 1014.79 1015.07 1015.27 1015.43 1015.59 1015.79 1015.99 1016.23 1016.47 1016.75 1017.07 1017.47 1017.79 1018.11 1018.43 1018.71 1018.95 1019.15 1019.35 1019.51 1019.67 1019.79 1019.95 1020.11 1020.23 1020.35 1020.43 1020.43 1020.43 1020.51 1020.59 1020.71 1020.83 1020.99 1021.15 1021.31 1021.51 1021.67 1021.91 1022.07 1022.19 1022.31 1022.47 1022.59 1022.71 1022.79 1022.87 1022.95 1023.03 1023.11 1023.19 1023.27 1023.39 1023.51
1010.67 1010.95 1011.23 1011.59 1011.95 1012.23 1012.55 1012.87 1013.19 1013.47 1013.75 1013.99 1014.23 1014.47 1014.71 1014.99 1015.23 1015.47 1015.67 1015.83 1016.07 1016.31 1016.55 1016.83 1017.11 1017.47 1017.79 1018.11 1018.43 1018.67 1018.95 1019.19 1019.39 1019.59 1019.79 1019.91 1020.07 1020.23 1020.35 1020.47 1020.55 1020.63 1020.63 1020.67 1020.71 1020.79 1020.95 1021.07 1021.19 1021.35 1021.51 1021.71 1021.91 1022.07 1022.27 1022.39 1022.51 1022.63 1022.79 1022.95 1023.07 1023.15 1023.23 1023.31 1023.35 1023.47 1023.55 1023.67 1023.71
1010.87 1011.15 1011.43 1011.79 1012.07 1012.43 1012.79 1013.07 1013.35 1013.67 1013.95 1014.23 1014.47 1014.67 1014.91 1015.15 1015.35 1015.63 1015.91 1016.11 1016.35 1016.63 1016.91 1017.19 1017.43 1017.75 1018.07 1018.35 1018.63 1018.91 1019.19 1019.43 1019.67 1019.91 1020.07 1020.23 1020.35 1020.47 1020.55 1020.67 1020.79 1020.83 1020.83 1020.91 1020.95 1021.03 1021.11 1021.23 1021.35 1021.55 1021.75 1021.95 1022.11 1022.31 1022.43 1022.55 1022.67 1022.87 1023.03 1023.15 1023.27 1023.35 1023.47 1023.55 1023.67 1023.75 1023.79 1023.91 1023.95
1010.99 1011.31 1011.67 1011.95 1012.31 1012.63 1012.99 1013.31 1013.59 1013.87 1014.11 1014.39 1014.67 1014.95 1015.11 1015.35 1015.59 1015.87 1016.11 1016.35 1016.63 1016.95 1017.23 1017.51 1017.79 1018.07 1018.35 1018.63 1018.95 1019.19 1019.39 1019.67 1019.95 1020.19 1020.35 1020.51 1020.63 1020.67 1020.79 1020.95 1021.03 1021.03 1021.07 1021.07 1021.15 1021.23 1021.35 1021.47 1021.59 1021.75 1021.95 1022.11 1022.35 1022.51 1022.63 1022.75 1022.91 1023.07 1023.23 1023.35 1023.51 1023.63 1023.67 1023.79 1023.87 1023.95 1024.03 1024.07 1024.15
1011.23 1011.47 1011.79 1012.15 1012.51 1012.83 1013.19 1013.51 1013.79 1014.07 1014.35 1014.63 1014.91 1015.15 1015.35 1015.63 1015.91 1016.15 1016.35 1016.59 1016.87 1017.19 1017.51 1017.79 1018.07 1018.35 1018.63 1018.95 1019.23 1019.51 1019.71 1019.95 1020.23 1020.47 1020.63 1020.79 1020.83 1020.91 1021.03 1021.19 1021.23 1021.27 1021.27 1021.27 1021.35 1021.43 1021.51 1021.63 1021.75 1021.91 1022.07 1022.31 1022.51 1022.63 1022.79 1022.91 1023.07 1023.27 1023.43 1023.55 1023.71 1023.83 1023.91 1023.99 1024.07 1024.15 1024.19 1024.23 1024.27
1011.39 1011.67 1011.95 1012.35 1012.71 1013.07 1013.35 1013.71 1013.95 1014.23 1014.55 1014.83 1015.11 1015.35 1015.59 1015.87 1016.15 1016.43 1016.63 1016.79 1017.07 1017.39 1017.79 1018.07 1018.35 1018.63 1018.95 1019.19 1019.51 1019.79 1020.07 1020.23 1020.39 1020.63 1020.87 1020.99 1021.07 1021.15 1021.27 1021.39 1021.51 1021.51 1021.51 1021.51 1021.55 1021.63 1021.67 1021.75 1021.91 1022.07 1022.27 1022.47 1022.63 1022.79 1022.95 1023.07 1023.23 1023.43 1023.59 1023.75 1023.91 1024.03 1024.07 1024.15 1024.23 1024.27 1024.27 1024.31 1024.35
1011.63 1011.87 1012.19 1012.51 1012.95 1013.27 1013.59 1013.91 1014.19 1014.47 1014.79 1015.07 1015.35 1015.59 1015.79 1016.03 1016.35 1016.67 1016.91 1017.07 1017.27 1017.59 1017.95 1018.27 1018.59 1018.91 1019.19 1019.43 1019.75 1020.07 1020.35 1020.51 1020.63 1020.87 1021.07 1021.23 1021.35 1021.39 1021.51 1021.63 1021.71 1021.79 1021.75 1021.71 1021.71 1021.79 1021.83 1021.95 1022.07 1022.23 1022.39 1022.59 1022.79 1022.95 1023.07 1023.23 1023.35 1023.55 1023.71 1023.91 1024.07 1024.19 1024.23 1024.35 1024.35 1024.43 1024.43 1024.39 1024.35
1011.87 1012.11 1012.39 1012.75 1013.11 1013.51 1013.79 1014.11 1014.39 1014.67 1014.95 1015.23 1015.51 1015.79 1016.03 1016.23 1016.59 1016.91 1017.15 1017.31 1017.51 1017.79 1018.15 1018.51 1018.83 1019.15 1019.39 1019.67 1019.95 1020.23 1020.51 1020.79 1020.95 1021.07 1021.23 1021.43 1021.55 1021.63 1021.67 1021.79 1021.91 1021.95 1021.95 1021.91 1021.91 1021.95 1021.99 1022.07 1022.23 1022.35 1022.55 1022.75 1022.95 1023.07 1023.23 1023.35 1023.51 1023.71 1023.87 1024.03 1024.19 1024.31 1024.43 1024.51 1024.55 1024.63 1024.67 1024.63 1024.47
1012.11 1012.35 1012.63 1012.95 1013.35 1013.67 1014.03 1014.35 1014.63 1014.91 1015.11 1015.39 1015.67 1015.99 1016.23 1016.47 1016.79 1017.07 1017.35 1017.59 1017.79 1018.07 1018.35 1018.67 1019.07 1019.35 1019.63 1019.87 1020.15 1020.43 1020.71 1020.99 1021.15 1021.31 1021.43 1021.59 1021.71 1021.79 1021.87 1021.95 1022.07 1022.11 1022.11 1022.07 1022.07 1022.11 1022.19 1022.27 1022.43 1022.55 1022.75 1022.95 1023.07 1023.23 1023.35 1023.51 1023.67 1023.87 1024.07 1024.19 1024.31 1024.47 1024.59 1024.67 1024.75 1024.79 1024.87 1024.91 1024.79
1012.35 1012.63 1012.95 1013.23 1013.55 1013.87 1014.23 1014.55 1014.87 1015.11 1015.35 1015.59 1015.83 1016.11 1016.35 1016.63 1016.95 1017.23 1017.51 1017.79 1018.07 1018.35 1018.59 1018.91 1019.23 1019.55 1019.83 1020.07 1020.35 1020.55 1020.83 1021.15 1021.35 1021.51 1021.67 1021.79 1021.87 1021.95 1022.07 1022.15 1022.23 1022.27 1022.27 1022.27 1022.23 1022.31 1022.35 1022.51 1022.59 1022.75 1022.95 1023.11 1023.23 1023.35 1023.51 1023.67 1023.87 1024.07 1024.27 1024.39 1024.51 1024.63 1024.79 1024.87 1024.95 1024.99 1025.07 1025.07 1025.07
Wind_Speed
8 8 7 7 7 6 6 5 6 6 6 5 6 6 5 5 5 5 5 5 5 4 4 4 4 4 5 6 7 7 7 7 7 8 8 7 7 6 6 6 6 5 6 6 6 6 6 6 5 4 3 3 4 3 3 3 4 4 4 4 3 3 3 4 4 5 5 4 3
9 9 8 8 7 6 5 5 5 6 5 5 5 5 5 5 5 5 5 5 5 4 4 4 5 5 6 7 7 7 7 7 7 8 8 8 8 8 7 6 6 6 7 8 7 6 5 5 4 4 3 3 3 3 3 3 3 4 4 4 3 3 3 4 4 4 4 4 3
9 9 8 8 8 7 6 5 6 6 6 5 5 5 5 5 5 5 5 5 5 4 4 4 5 6 7 7 7 7 7 7 7 8 7 7 8 8 7 6 7 7 8 7 6 6 5 5 4 4 4 3 4 4 4 4 4 5 5 5 4 3 3 3 3 3 3 2 3
10 9 9 9 9 8 7 6 7 7 6 5 5 5 5 4 4 5 5 5 5 4 4 4 5 6 6 7 7 7 7 7 7 7 7 7 7 7 7 7 7 8 8 7 7 6 6 6 4 4 4 4 5 5 4 4 5 5 4 4 3 3 3 2 2 2 2 2 2
10 9 9 9 10 9 8 7 7 7 6 5 5 5 4 4 4 4 4 5 4 4 4 5 5 5 6 6 7 7 7 7 7 7 6 6 7 7 8 8 7 7 7 8 7 7 7 6 5 4 4 4 4 4 4 5 5 5 4 2 2 2 2 3 2 2 2 2 2
10 9 9 9 10 9 8 7 8 8 6 6 5 5 5 4 5 5 5 4 5 5 6 6 6 6 6 6 7 7 7 7 7 7 7 7 7 7 8 7 7 7 7 8 8 8 8 7 5 4 4 4 4 4 5 5 5 5 4 3 2 2 2 2 2 2 2 2 2
10 10 10 10 10 9 8 7 8 7 7 6 7 7 6 6 6 6 6 5 5 5 6 6 6 6 6 6 6 6 6 6 7 7 7 7 7 7 7 7 7 7 7 7 7 8 7 7 5 4 4 4 4 4 4 4 4 4 4 3 2 2 2 3 2 2 2 2 2
10 10 10 11 11 10 10 9 8 7 7 6 7 7 8 7 7 7 6 6 6 5 5 6 7 7 7 6 7 7 7 7 7 7 7 7 7 7 7 8 8 8 8 8 7 7 7 6 5 4 4 4 3 3 4 5 5 5 5 4 3 2 2 2 2 2 2 1 1
10 10 11 11 11 10 10 10 9 8 7 7 7 8 8 8 8 7 7 6 6 6 7 7 8 8 8 8 7 7 7 7 8 7 8 8 9 10 10 10 10 9 9 8 9 9 8 6 5 4 4 4 3 3 4 4 5 5 5 4 3 2 2 2 2 2 2 2 3
11 11 11 11 11 10 10 10 9 9 8 8 8 8 8 8 8 8 7 6 7 7 8 8 9 9 9 8 8 8 8 8 8 9 9 10 10 11 10 9 9 9 8 7 8 8 8 6 5 5 4 4 4 4 4 4 5 6 5 4 3 3 2 2 3 3 3 3 3
12 11 11 10 11 11 10 10 9 9 8 8 8 8 8 8 8 8 7 7 8 9 9 9 10 10 9 9 8 8 8 8 8 9 10 11 11 10 10 9 9 8 8 7 7 6 6 6 6 6 5 4 4 4 4 4 5 6 5 3 3 3 3 3 4 3 3 3 3
12 12 11 11 11 11 10 9 8 8 8 8 9 9 9 9 9 9 9 8 9 9 10 10 10 10 9 8 8 8 7 7 8 10 11 12 11 10 10 9 8 8 8 7 6 6 5 6 6 6 5 4 4 4 4 5 5 6 5 4 4 4 5 5 5 4 3 3 3
12 12 11 11 11 11 10 9 8 8 8 8 9 9 9 9 9 9 9 9 9 9 9 9 9 9 9 9 8 8 8 8 9 10 11 11 11 10 9 9 8 8 7 6 5 5 5 6 6 6 6 5 4 4 5 5 6 6 6 6 6 6 6 5 5 4 4 4 4
13 12 12 12 11 11 10 9 8 7 8 10 10 10 10 9 9 9 9 10 9 9 9 8 8 8 8 9 9 9 10 10 11 11 11 10 10 9 9 8 8 7 6 5 5 5 6 6 6 6 6 6 6 6 6 6 6 7 7 7 7 7 6 6 6 5 5 5 5
13 13 12 12 11 10 9 8 7 8 9 11 10 10 9 8 9 9 10 11 10 10 9 9 9 9 9 10 11 11 11 11 11 11 10 10 10 9 9 8 7 6 6 5 5 5 6 6 6 6 7 7 7 7 6 7 7 7 8 8 8 7 7 6 6 6 5 5 4
13 13 12 12 11 10 9 8 7 8 10 10 10 9 9 9 10 10 11 11 10 10 10 11 10 10 10 11 11 12 11 11 11 11 10 10 9 9 8 7 7 6 6 6 6 6 6 6 7 7 8 8 8 8 8 8 9 9 9 9 8 7 7 6 6 5 5 4 3
13 13 12 12 11 10 9 8 8 9 10 11 10 10 10 10 10 10 11 11 10 10 11 11 11 10 10 10 9 10 10 10 10 10 10 9 9 9 8 7 7 7 7 7 7 7 7 7 8 8 8 8 8 9 9 10 10 10 9 8 8 7 6 5 4 4 4 4 4
13 13 12 11 11 11 11 11 11 11 11 11 11 11 11 10 10 10 11 11 11 12 12 12 11 10 10 10 9 8 9 10 10 10 10 10 10 10 9 9 8 8 8 8 8 8 8 9 9 8 8 8 9 9 10 10 10 10 9 7 6 5 5 4 4 4 5 6 6
13 13 12 12 12 12 13 12 12 12 12 12 12 12 12 12 12 11 11 11 12 12 13 12 11 11 11 11 10 9 9 10 10 11 11 11 11 11 10 9 8 8 8 8 8 8 9 9 9 9 8 9 9 10 10 10 10 9 7 6 6 5 5 5 5 6 7 8 8
13 13 13 13 13 14 13 13 13 13 13 13 13 13 13 13 13 13 12 12 12 12 13 12 12 12 12 12 11 10 10 10 11 11 12 12 12 11 11 10 9 9 8 8 8 8 9 9 9 9 9 10 10 10 10 10 9 8 7 6 6 6 6 7 8 8 8 8 8
13 13 13 13 14 14 14 14 14 14 14 14 14 14 14 13 13 13 13 12 12 13 13 13 13 13 13 12 12 11 11 10 11 12 12 12 12 11 11 10 10 9 9 9 9 10 10 10 10 10 10 10 10 9 9 9 8 7 7 6 6 6 7 8 8 8 8 8 7
13 13 14 14 15 15 15 15 15 14 14 14 14 14 13 13 13 13 13 13 13 13 13 13 13 13 13 12 12 12 12 11 12 12 12 12 11 11 10 10 10 11 11 11 11 11 11 11 11 10 10 9 9 9 9 8 8 8 7 7 7 7 7 8 8 8 7 7 6
14 15 15 15 15 16 16 15 15 15 14 14 14 14 14 13 12 12 12 13 13 13 13 13 13 13 13 13 13 13 13 13 13 13 12 12 12 11 11 10 11 11 11 10 10 10 10 10 10 9 9 8 9 8 8 8 8 7 7 7 7 7 7 7 8 7 7 6 5
15 15 14 14 15 16 16 15 15 15 15 14 14 14 14 12 12 12 13 14 14 14 13 12 12 13 13 14 14 14 15 15 14 14 13 13 12 12 11 10 10 9 8 8 9 9 9 8 7 7 7 7 7 7 7 7 6 6 6 6 7 7 7 7 7 7 6 6 5
16 16 15 15 15 15 15 15 15 15 14 14 14 14 13 12 12 13 14 14 14 14 14 13 13 13 13 14 14 15 15 15 15 14 14 13 13 12 10 9 7 6 6 8 13 14 13 10 8 7 6 7 7 7 7 6 6 6 6 6 6 6 6 6 6 6 6 6 6
17 16 16 15 16 16 16 15 15 15 15 14 15 15 14 13 13 14 14 14 13 13 13 13 13 13 13 13 14 14 14 14 14 14 14 14 13 12 10 8 6 5 6 11 16 17 16 15 13 10 8 6 7 7 7 7 8 8 8 8 7 7 6 6 5 5 5 5 6
17 16 16 16 16 16 16 15 15 15 15 15 15 15 15 14 13 14 14 14 13 12 12 12 12 13 13 13 14 15 14 13 14 14 14 14 13 11 10 8 6 6 8 14 17 18 18 17 16 14 10 7 7 7 7 7 8 9 9 8 8 8 8 7 7 6 5 5 6
17 16 16 17 16 16 15 15 15 15 15 15 16 16 15 15 14 14 14 13 12 12 11 11 11 11 11 12 14 15 15 15 14 13 13 13 12 11 9 7 7 8 12 16 18 18 18 18 17 16 13 10 8 7 7 7 8 8 8 7 8 8 7 7 7 7 7 7 7
17 17 17 17 16 16 15 16 16 16 15 15 15 16 16 15 14 14 13 12 12 11 10 9 9 9 10 12 14 15 16 15 13 13 12 13 12 11 9 8 8 11 15 18 18 18 18 18 18 18 16 13 9 7 6 6 7 7 7 6 6 7 7 6 6 7 7 7 8
17 17 17 17 16 16 16 16 16 16 15 15 15 16 16 15 14 14 13 13 12 10 10 10 10 12 13 14 14 14 14 13 12 12 13 13 12 11 10 9 8 11 15 18 18 19 19 19 19 19 18 16 12 9 7 7 6 6 6 6 7 7 7 7 8 8 8 8 9
17 17 17 17 16 16 16 16 16 16 15 14 15 15 15 15 14 13 13 12 12 12 12 13 14 15 15 14 14 14 13 13 12 12 12 13 13 12 11 10 9 11 15 19 19 19 19 19 20 20 19 17 13 9 7 7 7 7 7 7 8 8 8 8 9 9 10 10 9
17 18 18 17 17 17 16 16 16 16 16 16 16 15 15 14 13 13 13 13 13 14 15 16 16 16 16 15 15 14 14 13 13 12 12 12 12 12 11 10 10 11 14 18 19 19 19 19 20 20 19 17 13 10 8 8 8 8 8 9 10 10 10 9 9 10 11 10 9
18 18 18 18 17 17 16 16 16 16 16 16 16 16 15 14 14 13 13 13 14 15 16 16 17 16 16 15 15 15 14 14 14 13 13 12 11 11 10 9 9 11 15 18 18 18 19 19 19 19 19 17 12 9 8 8 8 8 8 10 10 11 11 11 10 10 11 10 9
18 18 18 18 17 17 17 16 16 16 16 16 16 15 15 15 14 14 14 13 13 14 14 15 15 15 15 14 14 14 14 13 13 12 12 11 11 10 9 7 8 11 15 17 17 18 18 18 19 19 18 16 11 8 8 8 8 9 9 10 10 11 11 11 11 11 10 10 8
18 18 18 17 17 17 17 17 17 17 16 16 15 15 14 14 14 14 14 14 14 14 14 14 14 14 14 14 14 15 15 14 13 13 12 11 11 11 10 8 9 12 15 16 16 16 17 17 18 17 16 13 9 7 7 8 9 9 10 11 11 11 11 10 10 10 9 9 8
17 18 18 18 18 18 17 17 17 17 16 16 15 15 14 14 13 13 14 15 15 15 15 14 14 15 15 14 14 14 14 14 14 13 12 11 11 11 11 9 9 12 15 16 15 16 16 16 17 16 14 10 7 6 6 7 8 9 10 10 10 10 10 9 9 8 8 7 7
17 17 18 18 18 18 18 17 17 17 16 16 15 15 15 14 14 13 13 15 15 15 15 15 15 15 15 14 14 13 13 13 13 13 12 11 11 11 10 9 9 11 13 15 15 15 15 16 16 14 11 7 6 6 6 6 6 7 8 9 9 8 8 8 7 7 7 7 8
16 17 18 18 18 18 17 17 17 17 16 16 15 14 14 14 13 13 13 14 15 15 15 15 15 15 15 15 14 14 13 13 13 13 12 11 11 11 10 9 8 9 11 14 15 15 15 16 16 14 11 7 6 5 5 5 5 6 6 7 7 7 7 6 6 6 7 8 11
16 17 18 18 18 18 17 17 17 16 16 16 15 14 13 12 11 11 12 13 14 15 15 15 15 15 15 15 15 14 14 13 13 12 12 11 11 11 11 9 8 8 11 14 15 15 15 16 16 14 12 8 6 5 5 5 5 5 5 6 6 6 6 6 5 6 7 9 13
16 17 17 18 18 18 17 17 16 15 15 15 15 14 13 12 12 12 13 13 14 15 15 15 15 15 15 15 15 14 14 13 12 12 11 11 12 12 12 10 8 9 11 15 16 16 16 16 16 15 12 8 6 5 5 5 5 5 5 5 5 5 5 5 5 5 6 7 10
16 16 17 17 17 17 17 17 16 15 14 14 14 14 13 12 13 13 13 13 14 14 14 14 15 15 15 14 14 14 14 13 12 11 11 11 12 12 11 9 9 9 10 13 16 17 16 16 16 15 12 8 6 5 5 5 5 5 5 5 5 5 5 5 5 5 5 5 6
Wind_Direction
166 161 156 156 156 154 152 151 151 153 154 156 158 159 158 155 153 153 154 155 158 162 166 168 171 173 172 168 164 164 163 159 155 153 153 153 154 156 158 161 152 137 120 108 104 103 102 101 98 94 90 88 88 85 82 79 77 75 73 73 73 75 74 71 69 69 70 74 77
164 159 154 153 153 150 147 147 147 149 152 154 155 155 154 150 149 149 151 153 156 160 163 166 168 168 167 164 162 161 160 156 152 151 152 154 158 160 161 157 143 128 118 112 110 109 106 101 96 91 84 78 76 73 69 65 72 75 76 75 78 81 83 84 86 90 94 100 104
162 158 154 153 152 150 148 147 146 147 147 148 150 150 148 144 143 144 148 152 153 156 159 163 163 161 159 157 157 157 156 153 150 149 152 156 159 158 153 141 131 124 120 117 115 111 105 99 93 87 83 80 75 70 63 56 64 70 71 65 66 69 74 82 88 95 101 108 109
161 159 155 152 151 149 148 147 144 144 144 145 144 143 141 138 137 140 143 146 148 151 154 155 152 150 149 149 149 150 149 146 144 144 146 149 147 140 133 127 126 125 123 119 116 110 105 100 94 91 90 91 87 85 81 77 74 75 74 69 77 85 94 100 98 98 98 96 93
162 160 156 151 148 147 145 143 142 141 141 141 141 140 137 131 131 134 139 144 147 148 146 141 137 136 136 136 138 139 138 137 135 135 133 130 126 125 126 129 130 129 125 122 120 116 111 105 101 99 99 96 94 96 100 102 95 92 90 88 96 106 111 111 104 99 93 89 81
161 158 152 146 144 143 142 142 140 139 139 140 139 137 135 131 131 135 140 143 142 137 132 126 124 124 123 123 125 126 128 130 130 129 127 122 120 123 128 135 136 134 132 132 133 130 125 118 111 104 100 95 96 101 106 108 107 107 107 105 104 103 102 102 98 92 90 90 90
158 154 148 144 143 142 143 142 140 138 137 137 137 137 135 132 134 137 139 138 133 128 123 119 120 120 119 116 114 115 118 123 128 129 129 127 128 132 134 134 131 128 127 129 128 125 120 114 109 103 99 98 103 110 116 116 115 114 112 109 101 89 85 89 89 85 85 95 113
153 150 146 143 142 143 143 143 140 139 138 139 139 137 136 135 137 136 133 127 124 120 117 116 119 119 117 113 111 108 107 107 111 116 119 119 115 108 98 90 86 83 82 81 82 84 88 94 100 105 109 112 116 120 121 117 112 108 104 99 89 79 77 86 92 91 88 88 98
150 147 144 142 143 143 143 142 140 139 139 140 139 138 138 138 136 131 125 121 118 115 115 117 119 117 114 111 107 103 100 98 99 101 103 102 99 94 89 85 83 80 78 78 82 86 89 94 99 104 109 113 116 117 117 113 107 102 99 95 91 86 84 90 96 95 86 69 59
147 145 143 142 143 142 141 139 138 138 138 138 138 139 138 134 127 123 119 117 113 113 115 118 119 116 113 109 104 101 99 100 101 101 100 98 98 98 99 98 96 94 92 91 93 95 96 97 99 100 102 105 110 114 115 112 106 104 104 108 117 121 119 105 97 89 80 69 61
145 144 143 142 142 140 138 136 136 137 138 139 139 136 130 123 118 116 116 114 113 114 117 120 120 117 114 108 104 102 101 104 105 103 100 97 95 95 95 95 95 94 94 93 95 96 97 99 102 103 103 104 109 114 115 112 109 111 113 118 122 120 112 97 87 80 75 69 63
142 142 141 140 139 138 136 136 137 138 139 139 135 127 120 115 115 116 116 116 116 118 120 121 119 117 114 109 105 102 101 103 105 103 100 96 93 91 90 90 92 93 94 95 96 97 100 103 107 109 111 113 114 116 115 111 109 107 104 94 87 84 83 82 79 76 71 65 56
140 139 139 138 137 135 135 136 138 139 139 135 125 119 115 116 118 119 119 118 117 116 114 111 110 110 110 109 105 101 97 95 96 96 97 97 95 93 92 92 92 93 95 97 100 103 107 110 115 118 121 120 117 113 111 106 101 95 90 83 78 75 74 73 71 69 64 59 52
138 137 137 136 135 134 135 137 139 138 132 124 118 117 117 119 119 117 114 110 107 104 100 96 94 95 99 102 102 100 97 93 93 94 96 98 99 99 98 98 98 100 104 108 109 111 114 118 121 121 119 114 109 106 101 97 92 88 85 82 79 76 72 68 65 63 61 58 55
135 135 135 134 135 135 136 138 136 129 122 118 118 119 119 117 111 106 102 100 99 98 95 92 88 85 87 93 98 100 100 98 98 98 99 99 100 102 104 107 109 111 113 113 109 109 111 113 111 108 104 101 98 94 89 85 83 81 80 78 75 72 68 65 63 62 62 62 62
134 134 134 134 135 135 134 132 125 119 118 119 120 118 114 108 103 101 100 100 99 97 95 94 91 89 87 89 96 99 101 101 101 100 100 100 102 104 106 109 109 108 105 100 96 94 95 97 97 96 94 94 91 87 83 79 77 75 74 73 71 70 67 66 66 66 67 68 69
133 134 135 135 133 129 124 118 116 117 119 121 116 111 106 104 103 102 102 102 101 99 97 96 96 95 93 92 94 97 100 100 100 99 99 99 99 97 96 93 92 91 91 91 90 88 88 88 89 89 89 89 88 85 82 79 77 76 74 73 73 72 71 70 71 72 70 67 65
134 134 134 132 126 120 116 114 116 117 118 114 108 104 102 103 103 103 102 102 102 101 100 98 98 97 96 94 93 94 96 98 97 96 96 95 92 89 85 82 81 82 84 86 86 86 86 85 85 85 85 85 85 84 83 82 81 81 80 79 78 76 73 69 67 66 64 61 59
134 133 131 126 121 117 115 114 114 113 110 105 102 100 100 102 103 103 103 102 102 102 102 101 99 97 97 97 96 96 96 97 97 96 94 92 89 86 82 77 74 74 76 80 83 85 86 86 85 85 84 84 83 83 84 85 85 85 84 82 78 74 68 63 60 61 61 62 61
133 131 127 123 120 116 113 110 107 104 102 100 99 99 100 102 103 103 104 104 104 104 103 103 101 100 100 101 100 98 97 96 95 92 89 85 82 79 76 72 68 65 65 68 73 78 82 84 83 82 81 82 83 85 87 88 87 85 82 79 75 72 69 67 65 64 64 65 64
131 127 122 117 114 110 106 102 100 99 98 98 98 99 100 101 102 104 106 107 106 105 104 103 103 103 103 103 99 96 92 88 86 84 82 79 77 75 73 71 68 65 63 62 64 67 71 74 74 75 77 79 82 85 88 88 87 84 81 79 76 75 74 74 73 71 69 68 67
119 113 109 106 104 102 100 99 97 97 97 98 98 99 100 101 103 105 107 108 107 105 103 102 102 102 102 100 97 93 89 85 83 82 81 80 78 77 75 74 72 71 70 69 69 71 72 72 73 74 76 77 78 81 85 88 88 87 85 83 80 78 78 79 79 78 76 73 71
104 101 100 100 100 100 99 98 98 98 98 100 100 101 101 102 104 107 108 107 105 102 100 99 98 98 97 96 95 94 92 90 87 85 84 84 82 80 78 77 76 76 76 76 77 78 78 77 76 76 77 79 80 82 85 89 91 92 90 87 83 82 82 83 84 84 81 77 73
101 101 101 101 101 100 100 100 100 100 102 103 103 103 104 105 106 107 105 103 101 99 98 98 97 96 96 95 95 95 95 93 91 89 86 84 82 80 79 79 79 81 84 86 87 87 87 85 81 79 79 80 81 82 84 88 92 93 91 88 85 83 83 85 88 89 87 82 73
102 102 102 102 102 101 101 102 103 104 105 106 106 105 105 106 106 104 101 99 98 98 99 100 99 99 98 97 97 96 95 94 93 91 88 84 81 78 77 76 77 80 88 95 95 94 94 93 90 86 83 81 79 77 76 74 77 78 78 77 77 76 76 77 82 87 89 86 76
103 103 103 103 103 103 104 105 106 107 108 107 106 105 105 105 103 101 99 97 97 98 99 100 101 101 101 100 99 96 94 92 91 90 88 85 80 77 74 72 71 72 84 94 96 96 95 94 92 90 86 82 79 75 71 67 65 65 64 63 63 63 62 60 61 66 74 79 74
105 104 105 104 104 105 107 109 109 109 108 108 106 106 105 105 103 101 99 98 98 98 98 99 100 101 101 100 98 95 93 91 89 88 86 85 82 79 76 75 74 79 87 93 94 95 94 93 91 88 85 80 78 76 74 70 66 63 62 59 58 56 55 53 49 48 49 53 60
107 107 107 106 107 108 110 110 109 109 108 108 107 107 107 106 103 102 100 100 100 99 98 98 99 99 99 97 96 95 93 92 89 87 85 83 82 81 79 78 78 84 89 92 93 93 93 91 88 85 80 76 74 73 73 72 69 66 63 61 58 56 54 51 48 46 45 46 50
109 109 109 108 109 111 111 110 109 109 109 109 108 108 107 106 104 103 102 102 101 100 100 100 100 99 98 97 95 93 92 90 89 87 86 85 83 81 79 78 79 84 88 89 90 90 89 88 85 82 78 75 72 69 67 67 68 66 64 61 58 56 53 50 47 46 47 49 50
112 111 111 111 111 112 112 111 111 111 111 110 109 109 108 106 105 105 104 104 103 103 103 104 102 100 98 97 95 93 91 91 91 90 90 89 86 84 81 79 79 83 86 88 88 88 88 87 85 82 80 77 74 71 68 66 66 65 63 60 56 54 52 50 47 47 49 52 53
114 113 112 112 112 112 112 113 112 112 112 111 109 108 107 107 107 106 106 105 105 104 102 101 98 96 94 93 92 92 92 92 91 91 90 90 89 86 83 79 79 82 86 87 88 88 88 87 86 84 82 80 77 74 71 69 68 66 63 60 55 53 51 50 48 48 50 54 55
115 115 114 113 113 113 113 112 111 111 110 109 108 107 107 107 107 107 106 105 104 102 100 98 96 94 92 91 92 92 93 93 92 91 90 90 89 87 84 80 79 82 85 86 87 88 88 88 87 86 85 83 81 78 76 74 71 68 65 62 58 56 53 53 52 51 52 55 56
116 115 115 114 113 113 112 111 110 109 109 109 108 108 109 109 108 107 105 103 102 100 99 98 97 96 96 96 96 95 94 94 92 91 90 88 87 85 83 79 79 82 84 86 87 88 88 89 89 88 87 86 84 81 78 78 76 72 68 65 62 59 58 57 56 54 54 54 55
117 116 115 114 113 112 111 110 110 110 110 109 109 110 110 110 108 106 104 102 101 99 98 97 97 98 98 98 98 97 96 94 91 88 87 85 84 82 80 76 78 81 83 85 86 87 89 90 90 90 90 88 86 83 81 80 79 77 74 71 67 64 62 60 59 58 57 55 54
118 116 115 114 113 113 112 112 111 111 110 110 109 109 108 107 106 105 104 103 101 98 96 95 96 96 95 95 95 95 95 93 90 88 85 84 82 80 77 73 76 79 81 83 85 88 89 91 92 92 91 89 87 84 83 83 82 81 79 76 72 69 67 65 63 62 60 59 56
118 117 115 114 114 114 114 113 113 112 111 110 109 108 106 105 104 104 104 104 101 99 98 97 96 96 95 95 94 94 94 94 92 90 86 84 81 79 76 72 72 75 78 81 84 87 90 93 93 93 92 89 87 84 84 85 86 85 84 82 79 76 72 70 68 66 65 64 61
118 117 116 115 115 115 115 115 113 112 111 110 110 109 107 106 105 104 104 104 103 101 100 99 98 97 97 97 95 94 93 93 93 91 88 84 81 79 76 72 69 71 74 79 83 86 90 92 93 92 90 87 85 84 84 85 87 88 88 89 86 83 78 74 69 65 63 63 63
117 117 116 116 116 116 116 115 114 113 112 111 110 109 108 107 106 105 105 105 104 104 103 101 100 99 99 98 97 95 93 92 92 91 89 85 82 81 79 75 70 69 72 76 81 85 88 91 91 89 86 83 84 85 86 86 86 88 90 92 91 88 82 76 67 58 52 51 54
117 117 116 116 116 116 116 115 114 114 113 112 111 109 108 107 106 106 106 105 105 105 104 103 102 101 101 100 98 97 95 93 93 92 91 88 85 83 81 79 74 71 73 76 80 83 86 89 89 86 83 79 80 83 86 86 84 84 84 86 87 84 80 75 67 56 46 41 43
116 116 116 116 117 117 116 115 115 114 114 113 111 110 109 108 108 107 106 105 104 104 104 103 103 102 102 101 100 99 98 95 93 92 91 90 87 85 83 80 76 74 74 76 78 81 85 87 87 85 81 75 73 76 81 82 80 78 77 77 79 78 75 70 67 59 49 37 33
115 116 116 116 116 116 116 115 114 113 112 111 111 110 110 109 109 109 108 107 105 104 104 104 104 104 104 103 102 101 99 97 93 91 89 89 87 85 83 80 76 74 73 75 77 80 83 86 86 85 81 75 70 71 76 78 78 76 74 73 74 75 73 66 62 58 50 38 26